Regional Weather Roundup
Issued by NWS

Home | Current Version | Previous Version | Text Only | Print | Product List | Glossary Off
Versions: 1 2 3 4 5 6 7 8 9 10 11 12 13 14 15 16 17 18 19 20 21 22 23 24 25 26 27 28 29 30 31 32 33 34 35 36 37 38 39 40 41 42 43 44 45 46 47 48 49 50

000
ASUS43 KLSX 192110
RWRMO

WEATHER SUMMARY FOR MISSOURI
NATIONAL WEATHER SERVICE SPRINGFIELD MO
300 PM CST THU JAN 19 2017

NOTE: "FAIR" INDICATES FEW OR NO CLOUDS BELOW 12,000 FEET WITH NO
       SIGNIFICANT WEATHER AND/OR OBSTRUCTIONS TO VISIBILITY.
       CURRENT SKY AND/OR WEATHER CONDITIONS ARE NOT AVAILABLE FOR
       CHILLICOTHE AND FARMINGTON.

MOZ001>031-035>038-043-044-053-054-192200-
...NORTHERN AND WESTERN MISSOURI...

CITY           SKY/WX    TMP DP  RH WIND       PRES   REMARKS
KANSAS CTY INT CLOUDY    48  44  86 SE9       29.67F
KANSAS C DTWN  CLOUDY    50  46  86 S6        29.67F
LEE`S SUMMIT   CLOUDY    48  47  96 S6        29.67F
ST JOSEPH      CLOUDY    48  46  93 S5        29.67F
CHILLICOTHE      N/A     46  45  96 SE5       29.70F
KIRKSVILLE     FOG       44  44 100 SE5       29.71F VSB<1/4

$$
MOZ066>068-077>081-088>096-101>105-192200-
...SOUTHWEST MISSOURI...

CITY           SKY/WX    TMP DP  RH WIND       PRES   REMARKS
SPRINGFIELD    CLOUDY    51  49  92 S6        29.67F
JOPLIN         CLOUDY    53  48  83 S6        29.67F
BRANSON        CLOUDY    52  48  87 E7        29.68F

$$
MOZ032>034-039>042-045>050-055>058-069>072-192200-
...CENTRAL MISSOURI...

CITY           SKY/WX    TMP DP  RH WIND       PRES   REMARKS
COLUMBIA       CLOUDY    48  47  96 S5        29.69F FOG
JEFFERSON CITY CLOUDY    49  47  93 E3        29.70F
ROLLA          CLOUDY    51  51 100 S6        29.67F
SEDALIA        CLOUDY    51  47  86 SE3       29.70F
WHITEMAN AFB   CLOUDY    50  50 100 CALM      29.67F
WARRENSBURG    CLOUDY    50  45  81 SE3       29.68F
OSAGE BEACH    CLOUDY    50  47  89 CALM      29.70S

$$
MOZ051-052-059>065-192200-
...EAST CENTRAL MISSOURI...

CITY           SKY/WX    TMP DP  RH WIND       PRES   REMARKS
ST LOUIS INTL  CLOUDY    48  45  89 E8        29.73F FOG
SPIRIT OF STL  CLOUDY    47  47 100 E6        29.72F FOG
ST CHARLES     CLOUDY    46  46 100 E8        29.72F FOG

$$
MOZ072>076-082>087-097>100-106>115-192200-
...SOUTH CENTRAL AND SOUTHEAST MISSOURI...

CITY           SKY/WX    TMP DP  RH WIND       PRES   REMARKS
CAPE GIRARDEAU FOG       51  49  92 CALM      29.72F VSB 1/2
POPLAR BLUFF   FOG       49  49 100 NE5       29.72F VSB 1/4
WEST PLAINS    FOG       50  49  96 SE5       29.69F VSB 1

$$




USA.gov is the U.S. government's official web portal to all federal, state and local government web resources and services.